Time,TemperatureF,DewpointF,PressureIn,WindDirection,WindDirectionDegrees,WindSpeedMPH,WindSpeedGustMPH,Humidity,HourlyPrecipIn,Conditions,Clouds,dailyrainin,SoftwareType,DateUTC
2013-07-17 00:03:00,57.0,0.0,30.07,SE,131,0.0,0.0,0,0.00,,OVC018,0.00,VWS V13.01,2013-07-17 07:03:00,
2013-07-17 00:08:00,57.0,0.0,30.07,SE,131,0.0,0.0,0,0.00,,OVC018,0.00,VWS V13.01,2013-07-17 07:08:00,
2013-07-17 00:13:00,57.0,0.0,30.07,SE,131,0.0,0.0,0,0.00,,OVC018,0.00,VWS V13.01,2013-07-17 07:13:00,
2013-07-17 00:19:00,57.0,0.0,30.07,SE,131,0.0,0.0,0,0.00,,OVC018,0.00,VWS V13.01,2013-07-17 07:19:00,
2013-07-17 00:24:00,56.9,0.0,30.07,SE,131,0.0,0.0,0,0.00,,OVC018,0.00,VWS V13.01,2013-07-17 07:24:00,
2013-07-17 00:29:00,56.9,0.0,30.07,SE,131,0.0,0.0,0,0.00,,OVC018,0.00,VWS V13.01,2013-07-17 07:29:00,
2013-07-17 00:34:00,56.9,0.0,30.07,SE,131,0.0,0.0,0,0.00,,OVC018,0.00,VWS V13.01,2013-07-17 07:34:00,
2013-07-17 00:39:00,56.9,0.0,30.07,SE,131,0.0,0.0,0,0.00,,OVC018,0.00,VWS V13.01,2013-07-17 07:39:00,
2013-07-17 00:44:00,56.9,0.0,30.07,SE,131,0.0,0.0,0,0.00,,OVC018,0.00,VWS V13.01,2013-07-17 07:44:00,
2013-07-17 00:49:00,56.8,0.0,30.07,SE,131,0.0,0.0,0,0.00,,OVC018,0.00,VWS V13.01,2013-07-17 07:49:00,
2013-07-17 00:54:00,56.8,0.0,30.07,SE,131,0.0,0.0,0,0.01,,OVC018,0.01,VWS V13.01,2013-07-17 07:54:00,
2013-07-17 00:59:00,56.8,0.0,30.07,SE,131,0.0,0.0,0,0.01,,OVC018,0.01,VWS V13.01,2013-07-17 07:59:00,
2013-07-17 01:04:00,56.8,0.0,30.07,SE,131,0.0,0.0,0,0.01,,OVC018,0.01,VWS V13.01,2013-07-17 08:04:00,
2013-07-17 01:09:00,56.8,0.0,30.07,SE,131,0.0,0.0,0,0.01,,OVC018,0.01,VWS V13.01,2013-07-17 08:09:00,
2013-07-17 01:15:00,56.7,0.0,30.07,SE,131,0.0,0.0,0,0.01,,OVC018,0.01,VWS V13.01,2013-07-17 08:15:00,
2013-07-17 01:20:00,56.7,0.0,30.07,SE,131,0.0,0.0,0,0.01,,OVC018,0.01,VWS V13.01,2013-07-17 08:20:00,
2013-07-17 01:25:00,56.7,0.0,30.07,SE,131,0.0,0.0,0,0.01,,OVC018,0.01,VWS V13.01,2013-07-17 08:25:00,
2013-07-17 01:30:00,56.6,0.0,30.07,SE,131,0.0,0.0,0,0.01,,OVC018,0.01,VWS V13.01,2013-07-17 08:30:00,
2013-07-17 01:35:00,56.5,0.0,30.07,SSE,154,0.0,2.0,0,0.01,,OVC018,0.01,VWS V13.01,2013-07-17 08:35:00,
2013-07-17 01:40:00,56.5,0.0,30.07,SSE,154,0.0,2.0,0,0.01,,OVC020,0.01,VWS V13.01,2013-07-17 08:40:00,
2013-07-17 01:45:00,56.4,0.0,30.07,SSE,154,0.0,0.0,0,0.01,,OVC020,0.01,VWS V13.01,2013-07-17 08:45:00,
2013-07-17 01:50:00,56.4,0.0,30.08,SSE,154,0.0,0.0,0,0.01,,OVC020,0.01,VWS V13.01,2013-07-17 08:50:00,
2013-07-17 01:55:00,56.4,0.0,30.08,SSE,154,0.0,0.0,0,0.01,,OVC020,0.01,VWS V13.01,2013-07-17 08:55:00,
2013-07-17 02:00:00,56.4,0.0,30.08,SSE,154,0.0,0.0,0,0.00,,OVC020,0.01,VWS V13.01,2013-07-17 09:00:00,
2013-07-17 02:06:00,56.4,0.0,30.08,SSE,154,0.0,0.0,0,0.00,,OVC020,0.01,VWS V13.01,2013-07-17 09:06:00,
2013-07-17 02:11:00,56.4,0.0,30.08,SSE,154,0.0,0.0,0,0.00,,OVC020,0.01,VWS V13.01,2013-07-17 09:11:00,
2013-07-17 02:16:00,56.4,0.0,30.08,SSE,154,0.0,0.0,0,0.00,,OVC020,0.01,VWS V13.01,2013-07-17 09:16:00,
2013-07-17 02:21:00,56.4,0.0,30.08,SSE,154,0.0,0.0,0,0.00,,OVC020,0.01,VWS V13.01,2013-07-17 09:21:00,
2013-07-17 02:26:00,56.4,0.0,30.08,SSE,154,0.0,0.0,0,0.00,,OVC020,0.01,VWS V13.01,2013-07-17 09:26:00,
2013-07-17 02:31:00,56.5,0.0,30.08,SSE,154,0.0,0.0,0,0.00,,OVC020,0.01,VWS V13.01,2013-07-17 09:31:00,
2013-07-17 02:36:00,56.5,0.0,30.08,SSE,154,0.0,0.0,0,0.00,,OVC020,0.01,VWS V13.01,2013-07-17 09:36:00,
2013-07-17 02:41:00,56.5,0.0,30.08,SSE,154,0.0,0.0,0,0.00,,OVC020,0.01,VWS V13.01,2013-07-17 09:41:00,
2013-07-17 02:46:00,56.5,0.0,30.08,SSE,154,0.0,0.0,0,0.00,,OVC020,0.01,VWS V13.01,2013-07-17 09:46:00,
2013-07-17 02:51:00,56.5,0.0,30.08,SSE,154,0.0,0.0,0,0.00,,OVC020,0.01,VWS V13.01,2013-07-17 09:51:00,
2013-07-17 02:56:00,56.5,0.0,30.09,SSE,154,0.0,0.0,0,0.00,,OVC020,0.01,VWS V13.01,2013-07-17 09:56:00,
2013-07-17 03:01:00,56.5,0.0,30.09,SSE,154,0.0,0.0,0,0.00,,OVC020,0.01,VWS V13.01,2013-07-17 10:01:00,
2013-07-17 03:07:00,56.5,0.0,30.09,SSE,154,0.0,0.0,0,0.00,,OVC020,0.01,VWS V13.01,2013-07-17 10:07:00,
2013-07-17 03:12:00,56.5,0.0,30.09,SSE,154,0.0,0.0,0,0.00,,OVC020,0.01,VWS V13.01,2013-07-17 10:12:00,
2013-07-17 03:17:00,56.4,0.0,30.09,SSE,154,0.0,0.0,0,0.00,,OVC020,0.01,VWS V13.01,2013-07-17 10:17:00,
2013-07-17 03:22:00,56.4,0.0,30.10,SSE,154,0.0,0.0,0,0.00,,OVC020,0.01,VWS V13.01,2013-07-17 10:22:00,
2013-07-17 03:27:00,56.4,0.0,30.10,SSE,154,0.0,0.0,0,0.00,,OVC020,0.01,VWS V13.01,2013-07-17 10:27:00,
2013-07-17 03:32:00,56.4,0.0,30.10,SSE,154,0.0,0.0,0,0.00,,OVC020,0.01,VWS V13.01,2013-07-17 10:32:00,
2013-07-17 03:37:00,56.4,0.0,30.10,SSE,154,0.0,0.0,0,0.00,,OVC020,0.01,VWS V13.01,2013-07-17 10:37:00,
2013-07-17 03:42:00,56.4,0.0,30.10,SSE,154,0.0,0.0,0,0.00,,OVC020,0.01,VWS V13.01,2013-07-17 10:42:00,
2013-07-17 03:47:00,56.3,0.0,30.10,SSE,154,0.0,0.0,0,0.00,,OVC020,0.01,VWS V13.01,2013-07-17 10:47:00,
2013-07-17 03:52:00,56.3,0.0,30.10,SSE,154,0.0,0.0,0,0.00,,OVC020,0.01,VWS V13.01,2013-07-17 10:52:00,
2013-07-17 03:57:00,56.3,0.0,30.10,SSE,154,0.0,0.0,0,0.00,,OVC020,0.01,VWS V13.01,2013-07-17 10:57:00,
2013-07-17 04:02:00,56.3,0.0,30.10,SSE,154,0.0,0.0,0,0.00,,OVC020,0.01,VWS V13.01,2013-07-17 11:02:00,
2013-07-17 04:07:00,56.3,0.0,30.10,SSE,154,0.0,0.0,0,0.00,,OVC020,0.01,VWS V13.01,2013-07-17 11:07:00,
2013-07-17 04:13:00,56.3,0.0,30.10,SSE,154,0.0,0.0,0,0.00,,OVC020,0.01,VWS V13.01,2013-07-17 11:13:00,
2013-07-17 04:18:00,56.3,0.0,30.10,SSE,154,0.0,0.0,0,0.00,,OVC020,0.01,VWS V13.01,2013-07-17 11:18:00,
2013-07-17 04:23:00,56.3,0.0,30.10,SSE,154,0.0,0.0,0,0.00,,OVC020,0.01,VWS V13.01,2013-07-17 11:23:00,
2013-07-17 04:28:00,56.2,0.0,30.10,SSE,154,0.0,0.0,0,0.00,,OVC020,0.01,VWS V13.01,2013-07-17 11:28:00,
2013-07-17 04:33:00,56.2,0.0,30.10,SSE,154,0.0,0.0,0,0.00,,OVC020,0.01,VWS V13.01,2013-07-17 11:33:00,
2013-07-17 04:38:00,56.2,0.0,30.10,SSE,154,0.0,0.0,0,0.00,,OVC020,0.01,VWS V13.01,2013-07-17 11:38:00,
2013-07-17 04:43:00,56.2,0.0,30.11,SSE,154,0.0,0.0,0,0.00,,OVC018,0.01,VWS V13.01,2013-07-17 11:43:00,
2013-07-17 04:48:00,56.2,0.0,30.10,SSE,154,0.0,0.0,0,0.00,,OVC018,0.01,VWS V13.01,2013-07-17 11:48:00,
2013-07-17 04:53:00,56.1,0.0,30.11,SSE,154,0.0,0.0,0,0.00,,OVC018,0.01,VWS V13.01,2013-07-17 11:53:00,
2013-07-17 04:58:00,56.1,0.0,30.11,SSE,154,0.0,0.0,0,0.00,,OVC018,0.01,VWS V13.01,2013-07-17 11:58:00,
2013-07-17 05:04:00,56.0,0.0,30.11,SSE,154,0.0,0.0,0,0.00,,OVC018,0.01,VWS V13.01,2013-07-17 12:04:00,
2013-07-17 05:09:00,56.0,0.0,30.11,SSE,154,0.0,0.0,0,0.00,,OVC018,0.01,VWS V13.01,2013-07-17 12:09:00,
2013-07-17 05:14:00,56.0,0.0,30.11,SSE,154,0.0,0.0,0,0.00,,OVC018,0.01,VWS V13.01,2013-07-17 12:14:00,
2013-07-17 17:41:00,72.3,59.0,30.12,NW,316,0.0,0.0,63,0.00,,OVC018,0.02,VWS V13.01,2013-07-18 00:41:00,
2013-07-17 17:46:00,71.3,57.6,30.12,NE,40,4.0,4.0,62,0.00,,OVC018,0.02,VWS V13.01,2013-07-18 00:46:00,
2013-07-17 17:51:00,70.5,56.9,30.13,North,350,2.0,9.0,62,0.00,,FEW040,0.02,VWS V13.01,2013-07-18 00:51:00,
2013-07-17 17:56:00,70.2,56.6,30.13,NNE,19,4.0,10.0,62,0.00,,FEW040,0.02,VWS V13.01,2013-07-18 00:56:00,
2013-07-17 18:02:00,69.9,56.3,30.13,NNE,18,3.0,5.0,62,0.00,,FEW040,0.02,VWS V13.01,2013-07-18 01:02:00,
2013-07-17 18:07:00,69.1,55.5,30.13,NNE,22,4.0,5.0,62,0.00,,FEW040,0.02,VWS V13.01,2013-07-18 01:07:00,
2013-07-17 18:12:00,68.5,54.1,30.13,NNE,12,2.0,5.0,60,0.00,,FEW040,0.02,VWS V13.01,2013-07-18 01:12:00,
2013-07-17 18:17:00,68.4,54.9,30.13,NE,49,2.0,5.0,62,0.00,,FEW040,0.02,VWS V13.01,2013-07-18 01:17:00,
2013-07-17 18:22:00,68.1,53.7,30.13,ENE,74,5.0,6.0,60,0.00,,FEW040,0.02,VWS V13.01,2013-07-18 01:22:00,
2013-07-17 18:27:00,68.0,54.1,30.13,NW,325,0.0,6.0,61,0.00,,FEW040,0.02,VWS V13.01,2013-07-18 01:27:00,
2013-07-17 18:32:00,67.6,53.7,30.13,NW,326,1.0,5.0,61,0.00,,FEW040,0.02,VWS V13.01,2013-07-18 01:32:00,
2013-07-17 18:37:00,67.4,53.0,30.13,NW,326,0.0,5.0,60,0.00,,FEW040,0.02,VWS V13.01,2013-07-18 01:37:00,
2013-07-17 18:42:00,67.3,53.0,30.13,NW,313,1.0,5.0,60,0.00,,FEW050,0.02,VWS V13.01,2013-07-18 01:42:00,
2013-07-17 18:47:00,67.4,52.1,30.13,North,349,0.0,3.0,58,0.00,,FEW050,0.02,VWS V13.01,2013-07-18 01:47:00,
2013-07-17 18:52:00,67.1,51.8,30.13,NNE,32,0.0,3.0,58,0.00,,FEW050,0.02,VWS V13.01,2013-07-18 01:52:00,
2013-07-17 18:58:00,66.8,52.5,30.14,North,10,0.0,6.0,60,0.00,,FEW050,0.02,VWS V13.01,2013-07-18 01:58:00,
2013-07-17 19:03:00,66.6,51.4,30.14,North,10,0.0,1.0,58,0.00,,FEW050,0.02,VWS V13.01,2013-07-18 02:03:00,
2013-07-17 19:08:00,66.4,51.2,30.14,North,350,1.0,3.0,58,0.00,,FEW050,0.02,VWS V13.01,2013-07-18 02:08:00,
2013-07-17 19:13:00,66.1,50.0,30.14,NNE,31,2.0,3.0,56,0.00,,FEW050,0.02,VWS V13.01,2013-07-18 02:13:00,
2013-07-17 19:18:00,65.9,47.8,30.14,NE,53,0.0,3.0,52,0.00,,FEW050,0.02,VWS V13.01,2013-07-18 02:18:00,
2013-07-17 19:23:00,65.6,48.5,30.14,NNE,14,0.0,3.0,54,0.00,,FEW050,0.02,VWS V13.01,2013-07-18 02:23:00,
2013-07-17 19:28:00,65.3,47.2,30.14,NNE,14,0.0,3.0,52,0.00,,FEW050,0.02,VWS V13.01,2013-07-18 02:28:00,
2013-07-17 19:33:00,65.1,46.0,30.14,NNE,14,0.0,0.0,50,0.00,,FEW050,0.02,VWS V13.01,2013-07-18 02:33:00,
2013-07-17 19:38:00,64.8,43.6,30.14,NNE,14,0.0,0.0,46,0.00,,FEW050,0.02,VWS V13.01,2013-07-18 02:38:00,
2013-07-17 19:43:00,64.5,44.9,30.14,NNE,14,0.0,0.0,49,0.00,,CLR,0.02,VWS V13.01,2013-07-18 02:43:00,
2013-07-17 19:48:00,64.3,44.2,30.15,NNE,14,0.0,0.0,48,0.00,,CLR,0.02,VWS V13.01,2013-07-18 02:48:00,
2013-07-17 19:53:00,64.1,35.9,30.15,NNE,14,0.0,0.0,35,0.00,,CLR,0.02,VWS V13.01,2013-07-18 02:53:00,
2013-07-17 19:58:00,63.8,37.7,30.15,NNE,14,0.0,0.0,38,0.00,,CLR,0.02,VWS V13.01,2013-07-18 02:58:00,
2013-07-17 20:04:00,63.4,36.0,30.15,NNE,14,0.0,0.0,36,0.00,,CLR,0.02,VWS V13.01,2013-07-18 03:04:00,
2013-07-17 20:09:00,63.1,25.8,30.15,NNE,14,0.0,0.0,24,0.00,,CLR,0.02,VWS V13.01,2013-07-18 03:09:00,
2013-07-17 20:14:00,62.8,27.4,30.15,NNE,14,0.0,0.0,26,0.00,,CLR,0.02,VWS V13.01,2013-07-18 03:14:00,
2013-07-17 20:19:00,62.4,24.1,30.16,NNE,14,0.0,0.0,23,0.00,,CLR,0.02,VWS V13.01,2013-07-18 03:19:00,
2013-07-17 20:24:00,62.1,16.8,30.16,NNE,14,0.0,0.0,17,0.00,,CLR,0.02,VWS V13.01,2013-07-18 03:24:00,
2013-07-17 20:29:00,61.8,13.7,30.16,NNE,13,0.0,0.0,15,0.00,,CLR,0.02,VWS V13.01,2013-07-18 03:29:00,
2013-07-17 20:34:00,61.4,4.4,30.16,NNE,13,0.0,0.0,10,0.00,,CLR,0.02,VWS V13.01,2013-07-18 03:34:00,
2013-07-17 20:39:00,61.1,-14.8,30.16,NNE,13,0.0,0.0,4,0.00,,CLR,0.02,VWS V13.01,2013-07-18 03:39:00,
2013-07-17 20:44:00,60.8,-28.2,30.16,NNE,13,0.0,0.0,2,0.00,,CLR,0.02,VWS V13.01,2013-07-18 03:44:00,
2013-07-17 20:49:00,60.5,0.0,30.16,NNE,13,0.0,0.0,0,0.00,,CLR,0.02,VWS V13.01,2013-07-18 03:49:00,
2013-07-17 20:54:00,60.1,0.0,30.16,NNE,13,0.0,0.0,0,0.00,,CLR,0.02,VWS V13.01,2013-07-18 03:54:00,
2013-07-17 20:59:00,59.8,0.0,30.16,NNE,13,0.0,0.0,0,0.00,,CLR,0.02,VWS V13.01,2013-07-18 03:59:00,
2013-07-17 21:01:00,59.7,0.0,30.16,NNE,13,0.0,0.0,0,0.00,,CLR,0.02,VWS V13.01,2013-07-18 04:01:00,
2013-07-17 21:02:00,59.7,0.0,30.17,NNE,13,0.0,0.0,0,0.00,,CLR,0.02,VWS V13.01,2013-07-18 04:02:00,
2013-07-17 21:07:00,59.4,0.0,30.17,NNE,13,0.0,0.0,0,0.00,,CLR,0.02,VWS V13.01,2013-07-18 04:07:00,
2013-07-17 21:12:00,59.1,0.0,30.17,NNE,13,0.0,0.0,0,0.00,,CLR,0.02,VWS V13.01,2013-07-18 04:12:00,
2013-07-17 21:17:00,58.9,0.0,30.17,NNE,14,0.0,0.0,0,0.00,,CLR,0.02,VWS V13.01,2013-07-18 04:17:00,
2013-07-17 21:22:00,58.6,0.0,30.17,NNE,13,0.0,0.0,0,0.00,,CLR,0.02,VWS V13.01,2013-07-18 04:22:00,
2013-07-17 21:27:00,58.3,0.0,30.17,NNE,33,0.0,3.0,0,0.00,,CLR,0.02,VWS V13.01,2013-07-18 04:27:00,
2013-07-17 21:32:00,58.2,-16.9,30.17,North,9,0.0,1.0,4,0.00,,CLR,0.02,VWS V13.01,2013-07-18 04:32:00,
2013-07-17 21:37:00,58.2,-16.9,30.17,North,9,0.0,2.0,4,0.00,,CLR,0.02,VWS V13.01,2013-07-18 04:37:00,
2013-07-17 21:42:00,58.0,0.0,30.17,NE,46,0.0,3.0,0,0.00,,CLR,0.02,VWS V13.01,2013-07-18 04:42:00,
2013-07-17 21:48:00,57.8,0.0,30.17,NE,46,0.0,0.0,0,0.00,,CLR,0.02,VWS V13.01,2013-07-18 04:48:00,
2013-07-17 21:53:00,57.5,0.0,30.18,NE,46,0.0,0.0,0,0.00,,CLR,0.02,VWS V13.01,2013-07-18 04:53:00,
2013-07-17 21:58:00,57.3,0.0,30.18,NE,46,0.0,0.0,0,0.00,,CLR,0.02,VWS V13.01,2013-07-18 04:58:00,
2013-07-17 22:03:00,57.0,0.0,30.18,NE,46,0.0,0.0,0,0.00,,CLR,0.02,VWS V13.01,2013-07-18 05:03:00,
2013-07-17 22:08:00,56.7,0.0,30.18,NE,46,0.0,0.0,0,0.00,,CLR,0.02,VWS V13.01,2013-07-18 05:08:00,
2013-07-17 22:13:00,56.5,0.0,30.19,NE,46,0.0,0.0,0,0.00,,CLR,0.02,VWS V13.01,2013-07-18 05:13:00,
2013-07-17 22:18:00,56.3,0.0,30.18,NE,46,0.0,0.0,0,0.00,,CLR,0.02,VWS V13.01,2013-07-18 05:18:00,
2013-07-17 22:23:00,56.1,0.0,30.18,NE,46,0.0,0.0,0,0.00,,CLR,0.02,VWS V13.01,2013-07-18 05:23:00,
2013-07-17 22:29:00,55.9,0.0,30.18,NE,46,0.0,0.0,0,0.00,,CLR,0.02,VWS V13.01,2013-07-18 05:29:00,
2013-07-17 22:34:00,55.7,0.0,30.19,NE,46,0.0,0.0,0,0.00,,CLR,0.02,VWS V13.01,2013-07-18 05:34:00,
2013-07-17 22:39:00,55.5,0.0,30.19,NE,46,0.0,0.0,0,0.00,,CLR,0.02,VWS V13.01,2013-07-18 05:39:00,
2013-07-17 22:44:00,55.3,0.0,30.19,NE,46,0.0,0.0,0,0.00,,CLR,0.02,VWS V13.01,2013-07-18 05:44:00,
2013-07-17 22:49:00,55.1,0.0,30.19,NE,46,0.0,0.0,0,0.00,,CLR,0.02,VWS V13.01,2013-07-18 05:49:00,
2013-07-17 22:54:00,55.0,0.0,30.19,NE,46,0.0,0.0,0,0.00,,CLR,0.02,VWS V13.01,2013-07-18 05:54:00,
2013-07-17 22:59:00,54.9,0.0,30.19,NE,46,0.0,0.0,0,0.00,,CLR,0.02,VWS V13.01,2013-07-18 05:59:00,
2013-07-17 23:04:00,54.7,0.0,30.19,NE,46,0.0,0.0,0,0.00,,CLR,0.02,VWS V13.01,2013-07-18 06:04:00,
2013-07-17 23:09:00,54.5,0.0,30.19,NE,46,0.0,0.0,0,0.00,,CLR,0.02,VWS V13.01,2013-07-18 06:09:00,
2013-07-17 23:14:00,54.3,0.0,30.19,NE,46,0.0,0.0,0,0.00,,CLR,0.02,VWS V13.01,2013-07-18 06:14:00,
2013-07-17 23:20:00,54.2,0.0,30.19,NE,46,0.0,0.0,0,0.00,,CLR,0.02,VWS V13.01,2013-07-18 06:20:00,
2013-07-17 23:25:00,54.1,0.0,30.19,NE,46,0.0,0.0,0,0.00,,CLR,0.02,VWS V13.01,2013-07-18 06:25:00,
2013-07-17 23:30:00,54.0,0.0,30.19,NE,46,0.0,0.0,0,0.00,,CLR,0.02,VWS V13.01,2013-07-18 06:30:00,
2013-07-17 23:35:00,53.7,0.0,30.20,NE,46,0.0,0.0,0,0.00,,CLR,0.02,VWS V13.01,2013-07-18 06:35:00,
2013-07-17 23:40:00,53.6,0.0,30.20,NE,46,0.0,0.0,0,0.00,,CLR,0.02,VWS V13.01,2013-07-18 06:40:00,
2013-07-17 23:45:00,53.4,0.0,30.20,NE,46,0.0,0.0,0,0.00,,CLR,0.02,VWS V13.01,2013-07-18 06:45:00,
2013-07-17 23:50:00,53.3,0.0,30.20,NE,46,0.0,0.0,0,0.00,,CLR,0.02,VWS V13.01,2013-07-18 06:50:00,
2013-07-17 23:55:00,53.1,0.0,30.19,NE,46,0.0,0.0,0,0.00,,CLR,0.02,VWS V13.01,2013-07-18 06:55:00,